Location: Colonial Hills
(40.5656°N, 77.6119°W)
Time: 19:28:54
(UTC+00:00)

N. Korean satellite - Visible Passes

Search period start: 29 November 2020 00:00
Search period end: 09 December 2020 00:00
Orbit: 452 x 504 km, 97.2° (Epoch: 29 November)

Date Brightness Start Highest point End Pass type
(mag) Time Alt. Az. Time Alt. Az. Time Alt. Az.
29 Nov 9.6 09:46:57 10° NE 09:49:19 16° E 09:51:40 10° SE visible
29 Nov 7.4 11:19:30 10° N 11:22:40 29° WNW 11:25:51 10° SW visible
30 Nov 6.5 10:52:52 10° N 10:56:28 65° WNW 11:00:05 10° SSW visible
30 Nov 10.1 23:03:30 10° WSW 23:04:22 11° W 23:05:14 10° WNW visible
01 Dec 7.3 10:26:37 10° NNE 10:30:10 54° E 10:33:46 10° S visible
01 Dec 9.2 22:35:04 10° SSW 22:37:52 23° W 22:40:41 10° NW visible
02 Dec 9.0 10:00:45 10° NE 10:03:47 24° E 10:06:49 10° SSE visible
02 Dec 7.9 11:34:16 10° NNW 11:36:57 20° WNW 11:39:40 10° WSW visible
02 Dec 7.4 22:08:06 10° S 22:11:26 53° W 22:14:50 10° NNW visible
03 Dec 10.0 09:35:51 10° ENE 09:37:18 12° E 09:38:43 10° ESE visible
03 Dec 7.0 11:07:20 10° N 11:10:47 41° WNW 11:14:15 10° SW visible
04 Dec 6.6 10:40:51 10° NNE 10:44:31 87° E 10:48:12 10° SSW visible
04 Dec 9.7 22:50:08 10° SW 22:52:14 15° W 22:54:23 10° NW visible
05 Dec 8.1 10:14:43 10° NNE 10:18:09 37° E 10:21:35 10° SSE visible
05 Dec 8.5 22:22:37 10° SSW 22:25:44 33° W 22:28:56 10° NNW visible
06 Dec 9.5 09:49:06 10° NE 09:51:41 18° E 09:54:15 10° SE visible
06 Dec 7.5 11:21:51 10° NNW 11:25:00 27° WNW 11:28:09 10° SW visible
07 Dec 6.6 10:55:08 10° N 10:58:45 60° WNW 11:02:23 10° SSW visible
07 Dec 10.3 23:06:16 10° W 23:06:35 10° W 23:06:54 10° W visible
08 Dec 7.2 10:28:46 10° NNE 10:32:24 59° E 10:36:03 10° S visible
08 Dec 9.3 22:37:16 10° SSW 22:39:59 22° W 22:42:46 10° NW visible
